CZ-6A DEB

Satellite information

Favourite Embed

Satellite Type and Status

DEBRISIN ORBIT

Key statistics

Satellite CZ-6A DEB at a glance.

Uptime

1085

Days in orbit

Revolutions

≈ 14.4

Per day

Orbit

SSO

Sun Synchronous Orbit

Inclination

98.8

Latest

Satellite identification and parameters

Extended collection of information and parameters for CZ-6A DEB.

Object identification

Identified? True

Debris? True

Object name: CZ-6A DEB

International designator: 2022-151LU

Object number (NORAD): 54568

Object ID (CCSDS): 54568

Country: PEOPLES REPUBLIC OF CHINA (PRC)

Current information (Y/N): Y

RCS size: SMALL

Orbital parameters

Period: 99.883 minutes

Inclination: 98.7527 deg

SMA: 7131.057 km

Apoapsis: 774.75 km

Periapsis: 731.093 km

RAAN: 333.0836 deg

Eccentricy: 0.00306109

Argument of periapsis: 256.6625 deg

Mean anomaly: 103.115 deg

Mean motion: 14.41690151 rev/day

Mean motion (dot): 0.00009304 rev/day2

B* drag term: 0.0028489715 1/REarth

Two-line elements (TLE)

Creation date: Oct. 30, 2025, 3:32 a.m.

Reference frame: TEME

Reference center: EARTH

Epoch: Oct. 29, 2025, 12:57 p.m. UTC

TLE line 0: 0 CZ-6A DEB

TLE line 1: 1 54568U 22151LU 25302.54004966 .00009304 00000-0 28490-2 0 9996

TLE line 2: 2 54568 98.7527 333.0836 0030611 256.6625 103.1150 14.41690151154482

Live tracking on map

Real-time ground track for satellite CZ-6A DEB.

In-orbit conjunctions

A list of the most updated potential collisions computed for object CZ-6A DEB.

Target Orbit TCA Probability of collision Miss distance Type
CZ-6A DEB LEO 2024-11-15 17:37:16 0.0001531338 120.0 (m) DEBRIS
ARIANE 1 R/B SSO 2024-09-18 23:43:59 0.0001106295 486.0 (m) ROCKET BODY

Associated space launch

Chinese satellite reported for atmospheric/ocean/environmental/spatial parameter research purposes, details TBD.

CZ-6A DEB was lifted into orbit during the mission ‘Long March 6A | Yunhai 3’, on board a Long March 6A space rocket.

The launch took place on Nov. 11, 2022, 10:52 p.m. from Launch Complex 9A.

For more information about the launch, click the button.

Launch to space Long March 6A | Yunhai 3
Long March 6A | Yunhai 3

Agency: N/A

Status: Launch Successful

Launch date: Nov. 11, 2022, 10:52 p.m. UTC

Rocket: Long March 6A

Launch pad: Launch Complex 9A

Location: Taiyuan Satellite Launch Center, People's Republic of China

...

Latest news about this satellite

There are no fresh news available about this satellite. Check back as we update our databases every day.


Newsletter sign-up

Weekly statistics, charts and insights to help you stay on top of the space industry.